Weather History for KVAY - July, 2012

Change the Weather History Date:

Thursday, July 19, 2012

  Actual Average (KWRI) Record (KWRI)
Temperature  
Mean Temperature 76 °F -  
Max Temperature 80 °F 83 °F 96 °F (1999)
Min Temperature 73 °F 63 °F 59 °F (2000)
Cooling Degree Days 10    
Growing Degree Days 26 (Base 50)    
Moisture  
Dew Point 69 °F    
Average Humidity 82    
Maximum Humidity 91    
Minimum Humidity 71    
Precipitation  
Precipitation 0.00 in - - ()
Sea Level Pressure  
Sea Level Pressure 29.93 in    
Wind  
Wind Speed 2 mph (NE)    
Max Wind Speed 9 mph    
Max Gust Speed -    
Visibility 7 miles    
Events      
Averages and records for this station are not official NWS values.
T = Trace of Precipitation, MM = Missing Value Source: NWS Daily Summary

Daily Weather History Graph

Daily Weather History Graph

Search for Another Location

Airport or City:

Trip Planner

Search our weather history database for the weather conditions in past years. The results will help you decide how hot, cold, wet, or windy it might be!

Date:

Astronomy

Jul. 19, 2012 Rise Set
Actual Time 5:46 AM EDT 8:24 PM EDT
Civil Twilight 5:15 AM EDT 8:55 PM EDT
Nautical Twilight 4:36 AM EDT 9:34 PM EDT
Astronomical Twilight 3:51 AM EDT 10:18 PM EDT
Moon 6:18 AM EDT (7/19) 8:29 PM EDT (7/19)
Length of Visible Light 15h 40m
Length of Day
14h 37m
New Moon, 0% of the Moon is Illuminated
Jul 19
New Moon
Jul 26
First Quarter
Aug 1
Full
Aug 9
Last Quarter
Aug 17
New

Hourly Weather History & Observations

Time (EDT) Temp. Dew Point Humidity Pressure Visibility Wind Dir Wind Speed Gust Speed Precip Events Conditions
12:54 AM 75.0 °F 72.0 °F 90% 29.88 in 7.0 mi Calm Calm - N/A   Clear
1:54 AM 75.0 °F 72.0 °F 90% 29.88 in 6.0 mi Calm Calm - N/A   Clear
2:54 AM 75.0 °F 72.0 °F 90% 29.87 in 6.0 mi Calm Calm - N/A   Clear
3:54 AM 73.9 °F 71.1 °F 91% 29.87 in 5.0 mi Calm Calm - N/A   Clear
4:54 AM 73.9 °F 71.1 °F 91% 29.87 in 5.0 mi Calm Calm - N/A   Clear
5:54 AM 73.9 °F 71.1 °F 91% 29.89 in 4.0 mi Calm Calm - N/A   Partly Cloudy
6:54 AM 75.0 °F 72.0 °F 90% 29.90 in 3.0 mi Calm Calm - N/A   Scattered Clouds
8:09 AM 77.0 °F 73.4 °F 89% 29.92 in 2.5 mi Calm Calm - N/A   Partly Cloudy
8:22 AM 77.0 °F 73.4 °F 89% 29.92 in 3.0 mi NNE 4.6 mph - N/A   Clear
8:54 AM 78.1 °F 72.0 °F 81% 29.92 in 5.0 mi East 4.6 mph - N/A   Haze
9:34 AM 78.8 °F 71.6 °F 78% 29.94 in 5.0 mi NNE 8.1 mph - N/A   Haze
9:54 AM 78.1 °F 72.0 °F 81% 29.94 in 5.0 mi NNE 9.2 mph - N/A   Haze
10:54 AM 78.1 °F 72.0 °F 81% 29.96 in 5.0 mi NE 5.8 mph - N/A   Haze
11:54 AM 77.0 °F 71.1 °F 82% 29.96 in 5.0 mi Variable 4.6 mph - N/A   Haze
12:54 PM 77.0 °F 69.1 °F 76% 29.96 in 8.0 mi NE 5.8 mph - N/A   Overcast
1:54 PM 75.9 °F 69.1 °F 79% 29.96 in 7.0 mi NE 5.8 mph - N/A   Overcast
2:54 PM 75.0 °F 68.0 °F 79% 29.96 in 8.0 mi NE 4.6 mph - N/A   Overcast
3:54 PM 73.9 °F 68.0 °F 82% 29.95 in 8.0 mi NE 3.5 mph - N/A   Overcast
4:54 PM 73.9 °F 66.0 °F 76% 29.94 in 10.0 mi Variable 5.8 mph - N/A   Overcast
5:54 PM 73.9 °F 64.0 °F 71% 29.94 in 10.0 mi ENE 4.6 mph - N/A   Overcast
6:54 PM 73.9 °F 64.0 °F 71% 29.94 in 10.0 mi East 6.9 mph - N/A   Overcast
7:54 PM 73.0 °F 64.9 °F 76% 29.94 in 10.0 mi NE 4.6 mph - N/A   Overcast
8:54 PM 73.0 °F 66.0 °F 79% 29.94 in 10.0 mi NE 3.5 mph - N/A   Overcast
9:54 PM 73.0 °F 66.0 °F 79% 29.94 in 10.0 mi East 3.5 mph - N/A   Overcast
10:54 PM 73.0 °F 66.9 °F 81% 29.94 in 10.0 mi ENE 3.5 mph - N/A   Overcast
11:16 PM 73.4 °F 66.2 °F 78% 29.93 in 10.0 mi Calm Calm - N/A   Overcast
11:45 PM 73.4 °F 66.2 °F 78% 29.92 in 10.0 mi ENE 3.5 mph - N/A   Overcast
11:54 PM 73.0 °F 66.9 °F 81% 29.92 in 10.0 mi Calm Calm - N/A   Overcast